Regional Weather Roundup
Issued by NWS

Home | Current Version | Previous Version | Text Only | Print | Product List | Glossary Off
Versions: 1 2 3 4 5 6 7 8 9 10 11 12 13 14 15 16 17 18 19 20 21 22 23 24 25 26 27 28 29 30 31 32 33 34 35 36 37 38 39 40 41 42 43 44 45 46 47 48 49 50

480
ASUS45 KABQ 260610
RWRNM
NEW MEXICO REGIONAL WEATHER ROUNDUP
NATIONAL WEATHER SERVICE ALBUQUERQUE NM
1200 AM MDT WED APR 26 2017

NOTE: "FAIR" MEANS FEW OR NO CLOUDS BELOW 12,000 FEET AGL WITH NO
       SIGNIFICANT WEATHER OR OBSTRUCTIONS TO VISION.

      THIS PRODUCT IS RELEASED AS TWO VERSIONS.  ONE VERSION NEAR
      THE TOP OF THE HOUR CONTAINING PRELIMINARY DATA FROM ALBUQUERQUE
      AND OTHER STATIONS.  A FINAL VERSION WITH ADDITIONAL DATA IS
      ISSUED ABOUT 10 MINUTES AFTER THE HOUR.

NMZ501-503-504-510>518-260700-
NORTHWEST PLATEAU/NORTHCENTRAL MOUNTAINS

CITY           SKY/WX    TMP DP  RH WIND       PRES   REMARKS
FARMINGTON     FAIR      43  24  47 NW14      29.82R
6HR MIN TEMP:  41; 6HR MAX TEMP:  51;

LOS ALAMOS     FAIR      40  24  52 NE8G16    29.79R WCI  34
SANTA FE       FAIR      38  32  79 CALM      29.76S
6HR MIN TEMP:  38; 6HR MAX TEMP:  47; 6HR PCP:  0.02;

TAOS             N/A     34  27  75 S3        29.80R
ANGEL FIRE     LGT SNOW  31  29  92 N3        29.79R

$$
NMZ402-403-502-505>509-260700-
WESTCENTRAL MOUNTAINS/SOUTHWEST MOUNTAINS

CITY           SKY/WX    TMP DP  RH WIND       PRES   REMARKS
GALLUP         FAIR      39  23  52 NW5       29.91R
6HR MIN TEMP:  39; 6HR MAX TEMP:  55;

GRANTS         FAIR      34  24  64 N7        29.89S WCI  28
SILVER CITY    FAIR      55  31  39 NW22G29   29.84R

$$
NMZ407-409-411-412-260700-
SOUTHERN DESERTS

CITY           SKY/WX    TMP DP  RH WIND       PRES   REMARKS
DEMING         FAIR      63  31  30 W26G40    29.78S
6HR MIN TEMP:  63; 6HR MAX TEMP:  76;

LAS CRUCES     FAIR      64  28  26 NW14G20   29.79R
HOLLOMAN AFB   FAIR      60  37  42 N20G28    29.79R
ALAMOGORDO     FAIR      59  36  41 N18G26    29.76R
T OR C         MOCLDY    55  30  38 N14G25    29.83R
6HR MIN TEMP:  53; 6HR MAX TEMP:  74;


$$
NMZ519>523-260700-
CENTRAL VALLEYS/CENTRAL HIGHLANDS

CITY           SKY/WX    TMP DP  RH WIND       PRES   REMARKS
ALBUQUERQUE    FAIR      46  35  65 SE5       29.82R
6HR MIN TEMP:  46; 6HR MAX TEMP:  53; 6HR PCP:  0.03;

MORIARTY ARPT  FAIR      39  34  81 SW5       29.80F
6HR MIN TEMP:  39; 6HR MAX TEMP:  51; 6HR PCP:  0.04;

CLINES CORNERS FAIR      36  30  79 W21       29.78S WCI  25
6HR MIN TEMP:  36; 6HR MAX TEMP:  45; 6HR PCP:  0.07;

BELEN          MOCLDY    47  31  53 W7        29.83R
6HR MIN TEMP:  45; 6HR MAX TEMP:  63;

SOCORRO        CLOUDY    47  39  74 N6        29.82S
6HR MIN TEMP:  47; 6HR MAX TEMP:  69;


$$
NMZ524>526-539-540-260700-
SOUTHCENTRAL MOUNTAINS

CITY           SKY/WX    TMP DP  RH WIND       PRES   REMARKS
RUIDOSO        CLOUDY    39  36  87 NW13      29.84F WCI  32

$$
NMZ527>531-260700-
NORTHEAST HIGHLANDS/NORTHEAST PLAINS

CITY           SKY/WX    TMP DP  RH WIND       PRES   REMARKS
LAS VEGAS      FAIR      38  27  64 NW13      29.72R WCI  30
6HR MIN TEMP:  35; 6HR MAX TEMP:  50;

RATON          CLOUDY    37  31  78 N12       29.71S WCI  29
6HR MIN TEMP:  37; 6HR MAX TEMP:  53; 6HR PCP:  0.03;

CLAYTON        CLOUDY    41  41 100 N13G22    29.68R
6HR MIN TEMP:  40; 6HR MAX TEMP:  50; 6HR PCP:  0.14;


$$
NMZ532>537-260700-
EASTCENTRAL PLAINS

CITY           SKY/WX    TMP DP  RH WIND       PRES   REMARKS
SANTA ROSA     FAIR      49  32  52 W3G10     29.67R
TUCUMCARI      FAIR      51  42  71 NE12      29.63R
6HR MIN TEMP:  51; 6HR MAX TEMP:  73;

CANNON AFB     CLOUDY    55  41  60 W12       29.63F
6HR MIN TEMP:  55; 6HR MAX TEMP:  73; 6HR PCP:  0.02;

CLOVIS AIRPORT CLOUDY    54  37  54 N9        29.63F

$$
NMZ028-029-538-260700-
SOUTHEAST PLAINS

CITY           SKY/WX    TMP DP  RH WIND       PRES   REMARKS
ROSWELL        FAIR      58  37  45 NW22        N/A
6HR MIN TEMP:  58; 6HR MAX TEMP:  82;

ARTESIA        FAIR      59  39  47 NW18G28   29.69S
CARLSBAD       FAIR      61  43  51 N23G29    29.67R
6HR MIN TEMP:  61; 6HR MAX TEMP:  85;

HOBBS          FAIR      59  39  47 NW18G26   29.67R


$$




USA.gov is the U.S. government's official web portal to all federal, state and local government web resources and services.